Terminal Aerodrome Forecast
Issued by NWS Pittsburgh, PA

Current Version | Previous Version | Graphics & Text | Print | Product List | Glossary On
Versions: 1 2 3 4 5 6 7 8 9 10 11 12 13 14 15 16 17 18 19 20 21 22 23 24 25 26
000
FTUS41 KPBZ 220257 AAA
TAFPIT
TAF AMD
KPIT 220257Z 2203/2306 25004KT P6SM FEW100
     FM221400 27012KT P6SM VCSH BKN040
     FM221700 30014G21KT P6SM VCSH BKN050
     FM222000 31015G23KT P6SM SKC
     FM230200 34006KT P6SM SKC=

USA.gov is the U.S. government's official web portal to all federal, state and local government web resources and services.